When you browse on this site, cookies collect data to enhance your experience and personalize the content and advertising you see.
Visit our Privacy Policy to learn more. By continuing to use the site, you agree to this use of cookies and data.
  • In Spain
  • List of Countries
  • For 7 days
  • Water Temperature
  • Satellite Maps
  • Weather Map
  • Weather Widgets
  • user-avatar
    Login

    Hourly Weather Bucenino

    Today, 27 May, Monday

    Time Temperature Precipitation Wind Pressure Humidity
    00:00 +9°C° 0 mm 3 mps 737 mmHg 89%
    01:00 +9°C° 0 mm 3 mps 737 mmHg 90%
    02:00 +8°C° 0 mm 3 mps 737 mmHg 91%
    03:00 +8°C° 0 mm 4 mps 737 mmHg 91%
    04:00 +8°C° 0 mm 4 mps 737 mmHg 90%
    05:00 +8°C° 0 mm 4 mps 737 mmHg 89%
    06:00 +10°C° 0 mm 4 mps 738 mmHg 87%
    07:00 +10°C° 0 mm 5 mps 738 mmHg 85%
    08:00 +12°C° 0 mm 5 mps 738 mmHg 83%
    09:00 +14°C° 0 mm 5 mps 738 mmHg 79%
    10:00 +16°C° 0 mm 6 mps 738 mmHg 74%
    11:00 +18°C° 0 mm 7 mps 739 mmHg 70%
    12:00 +19°C° 0.2 mm 6 mps 739 mmHg 70%
    13:00 +20°C° 0.2 mm 6 mps 739 mmHg 70%
    14:00 +20°C° 0.2 mm 6 mps 739 mmHg 71%
    15:00 +20°C° 0.7 mm 5 mps 739 mmHg 74%
    16:00 +20°C° 0.7 mm 5 mps 739 mmHg 77%
    17:00 +20°C° 0.7 mm 4 mps 739 mmHg 80%
    18:00 +19°C° 0.3 mm 4 mps 739 mmHg 83%
    19:00 +18°C° 0.3 mm 3 mps 739 mmHg 85%
    20:00 +16°C° 0.3 mm 3 mps 739 mmHg 88%
    21:00 +16°C° 0 mm 3 mps 739 mmHg 89%
    22:00 +14°C° 0 mm 3 mps 739 mmHg 91%
    23:00 +14°C° 0 mm 3 mps 739 mmHg 92%

    Tomorrow, 28 May, Tuesday

    Time Temperature Precipitation Wind Pressure Humidity
    00:00 +13°C° 0 mm 3 mps 739 mmHg 93%
    01:00 +13°C° 0 mm 3 mps 740 mmHg 94%
    02:00 +13°C° 0 mm 3 mps 740 mmHg 94%
    03:00 +13°C° 0 mm 3 mps 740 mmHg 95%
    04:00 +13°C° 0 mm 3 mps 740 mmHg 95%
    05:00 +15°C° 0 mm 2 mps 740 mmHg 95%
    06:00 +17°C° 0 mm 3 mps 740 mmHg 91%
    07:00 +18°C° 0 mm 3 mps 740 mmHg 88%
    08:00 +20°C° 0 mm 4 mps 740 mmHg 84%
    09:00 +21°C° 0.2 mm 5 mps 740 mmHg 80%
    10:00 +22°C° 0.2 mm 5 mps 740 mmHg 75%
    11:00 +23°C° 0.2 mm 6 mps 740 mmHg 71%
    12:00 +23°C° 0.2 mm 6 mps 740 mmHg 71%
    13:00 +23°C° 0.2 mm 6 mps 740 mmHg 71%
    14:00 +23°C° 0.2 mm 6 mps 739 mmHg 71%
    15:00 +23°C° 0 mm 6 mps 739 mmHg 70%
    16:00 +23°C° 0 mm 6 mps 739 mmHg 70%
    17:00 +23°C° 0 mm 6 mps 739 mmHg 69%
    18:00 +22°C° 0 mm 6 mps 739 mmHg 72%
    19:00 +21°C° 0 mm 6 mps 739 mmHg 74%
    20:00 +20°C° 0 mm 6 mps 739 mmHg 76%
    21:00 +20°C° 0 mm 6 mps 739 mmHg 76%
    22:00 +20°C° 0 mm 5 mps 739 mmHg 76%
    23:00 +20°C° 0 mm 5 mps 739 mmHg 76%

    Day after tomorrow, 29 May, Wednesday

    Time Temperature Precipitation Wind Pressure Humidity
    00:00 +19°C° 0 mm 5 mps 740 mmHg 79%
    01:00 +19°C° 0 mm 5 mps 740 mmHg 82%
    02:00 +17°C° 0 mm 5 mps 740 mmHg 85%
    03:00 +17°C° 0 mm 5 mps 740 mmHg 85%
    04:00 +17°C° 0 mm 5 mps 740 mmHg 85%
    05:00 +17°C° 0 mm 5 mps 740 mmHg 86%
    06:00 +19°C° 0 mm 6 mps 740 mmHg 81%
    07:00 +20°C° 0 mm 6 mps 740 mmHg 77%
    08:00 +21°C° 0 mm 7 mps 740 mmHg 73%
    09:00 +22°C° 0 mm 7 mps 740 mmHg 70%
    10:00 +23°C° 0 mm 7 mps 740 mmHg 67%
    11:00 +24°C° 0 mm 7 mps 740 mmHg 64%
    12:00 +24°C° 0 mm 6 mps 740 mmHg 67%
    13:00 +23°C° 0 mm 6 mps 740 mmHg 70%
    14:00 +23°C° 0 mm 5 mps 740 mmHg 73%
    15:00 +23°C° 0 mm 4 mps 740 mmHg 74%
    16:00 +23°C° 0 mm 4 mps 740 mmHg 75%
    17:00 +23°C° 0 mm 4 mps 740 mmHg 76%
    18:00 +22°C° 0.1 mm 4 mps 740 mmHg 79%
    19:00 +21°C° 0.1 mm 4 mps 740 mmHg 82%
    20:00 +20°C° 0.1 mm 4 mps 740 mmHg 85%
    21:00 +20°C° 0.9 mm 4 mps 741 mmHg 88%
    22:00 +19°C° 0.9 mm 3 mps 741 mmHg 90%
    23:00 +18°C° 0.9 mm 3 mps 741 mmHg 93%

    30 May, Thursday

    Time Temperature Precipitation Wind Pressure Humidity
    00:00 +18°C° 0 mm 3 mps 741 mmHg 94%
    01:00 +18°C° 0 mm 3 mps 741 mmHg 94%
    02:00 +18°C° 0 mm 3 mps 741 mmHg 95%
    03:00 +18°C° 0.4 mm 3 mps 741 mmHg 95%
    04:00 +18°C° 0.4 mm 3 mps 741 mmHg 95%
    05:00 +18°C° 0.4 mm 3 mps 741 mmHg 94%
    06:00 +19°C° 0.5 mm 3 mps 741 mmHg 92%
    07:00 +20°C° 0.5 mm 3 mps 742 mmHg 89%
    08:00 +21°C° 0.5 mm 3 mps 742 mmHg 86%
    09:00 +22°C° 1.3 mm 3 mps 742 mmHg 82%
    10:00 +24°C° 1.3 mm 3 mps 742 mmHg 78%
    11:00 +25°C° 1.3 mm 3 mps 742 mmHg 75%
    12:00 +25°C° 0.9 mm 3 mps 742 mmHg 74%
    13:00 +25°C° 0.9 mm 3 mps 742 mmHg 74%
    14:00 +25°C° 0.9 mm 3 mps 742 mmHg 74%
    15:00 +25°C° 1.3 mm 3 mps 742 mmHg 78%
    16:00 +24°C° 1.3 mm 2 mps 742 mmHg 81%
    17:00 +23°C° 1.3 mm 1 mps 742 mmHg 85%
    18:00 +21°C° 0.7 mm 2 mps 742 mmHg 87%
    19:00 +20°C° 0.7 mm 2 mps 742 mmHg 88%
    20:00 +19°C° 0.7 mm 2 mps 742 mmHg 90%
    21:00 +19°C° 0.1 mm 2 mps 742 mmHg 91%
    22:00 +19°C° 0.1 mm 1 mps 742 mmHg 93%
    23:00 +18°C° 0.1 mm 1 mps 742 mmHg 94%

    31 May, Friday

    Time Temperature Precipitation Wind Pressure Humidity
    00:00 +17°C° 0 mm 2 mps 742 mmHg 94%
    01:00 +17°C° 0 mm 2 mps 742 mmHg 95%
    02:00 +16°C° 0 mm 2 mps 742 mmHg 95%
    03:00 +17°C° 0 mm 2 mps 742 mmHg 95%
    04:00 +17°C° 0 mm 2 mps 742 mmHg 95%
    05:00 +17°C° 0 mm 2 mps 742 mmHg 95%
    06:00 +19°C° 0.3 mm 2 mps 742 mmHg 92%
    07:00 +20°C° 0.3 mm 2 mps 742 mmHg 88%
    08:00 +23°C° 0.3 mm 2 mps 742 mmHg 84%
    09:00 +24°C° 0.6 mm 3 mps 742 mmHg 77%
    10:00 +26°C° 0.6 mm 4 mps 741 mmHg 71%
    11:00 +27°C° 0.6 mm 5 mps 741 mmHg 65%
    12:00 +27°C° 0.4 mm 5 mps 741 mmHg 66%
    13:00 +27°C° 0.4 mm 5 mps 741 mmHg 67%
    14:00 +27°C° 0.4 mm 5 mps 741 mmHg 68%
    15:00 +26°C° 0.7 mm 4 mps 741 mmHg 73%
    16:00 +25°C° 0.7 mm 3 mps 741 mmHg 79%
    17:00 +24°C° 0.7 mm 3 mps 740 mmHg 85%
    18:00 +22°C° 0.1 mm 3 mps 740 mmHg 87%
    19:00 +22°C° 0.1 mm 3 mps 740 mmHg 89%
    20:00 +21°C° 0.1 mm 3 mps 740 mmHg 91%
    21:00 +20°C° 0.8 mm 3 mps 740 mmHg 91%
    22:00 +20°C° 0.8 mm 3 mps 740 mmHg 91%
    23:00 +19°C° 0.8 mm 3 mps 740 mmHg 91%

    1 June, Saturday

    Time Temperature Precipitation Wind Pressure Humidity
    00:00 +19°C° 0.5 mm 3 mps 740 mmHg 92%
    01:00 +19°C° 0.5 mm 3 mps 740 mmHg 93%
    02:00 +18°C° 0.5 mm 3 mps 739 mmHg 94%
    03:00 +18°C° 0.1 mm 3 mps 740 mmHg 94%
    04:00 +18°C° 0.1 mm 2 mps 740 mmHg 94%
    05:00 +18°C° 0.1 mm 2 mps 740 mmHg 94%
    06:00 +19°C° 0.7 mm 2 mps 740 mmHg 92%
    07:00 +20°C° 0.7 mm 3 mps 740 mmHg 90%
    08:00 +21°C° 0.7 mm 3 mps 741 mmHg 88%
    09:00 +21°C° 1.5 mm 3 mps 741 mmHg 88%
    10:00 +21°C° 1.5 mm 3 mps 741 mmHg 89%
    11:00 +20°C° 1.5 mm 4 mps 742 mmHg 89%
    12:00 +19°C° 2 mm 4 mps 742 mmHg 91%
    13:00 +17°C° 2 mm 5 mps 742 mmHg 93%
    14:00 +16°C° 2 mm 5 mps 742 mmHg 95%
    15:00 +15°C° 1.6 mm 5 mps 742 mmHg 94%
    16:00 +14°C° 1.6 mm 5 mps 742 mmHg 94%
    17:00 +14°C° 1.6 mm 5 mps 743 mmHg 94%
    18:00 +13°C° 0.1 mm 5 mps 743 mmHg 93%
    19:00 +13°C° 0.1 mm 4 mps 743 mmHg 92%
    20:00 +13°C° 0.1 mm 4 mps 744 mmHg 91%
    21:00 +12°C° 0.4 mm 5 mps 744 mmHg 91%
    22:00 +10°C° 0.4 mm 5 mps 745 mmHg 90%
    23:00 +9°C° 0.4 mm 6 mps 745 mmHg 90%
    Show more